DateTime,F1_A11,F1_S11,BsB_S11,BsG_S11,BsR_S11,BbsB_S11,BbsG_S11,BbsR_S11,BaB_A11,BaG_A11,BaR_A11,T_S11,U_S11,P_S11,T1_A11
2016-11-30T00:00:00Z,0000388,21000608,,,,,,,,,,25.1,00.0,0644.9,34.6
2016-11-30T00:01:00Z,0000388,21000608,,,,,,,,,,25.1,00.0,0644.9,34.6
2016-11-30T00:02:00Z,0000388,21000608,,,,,,,,,,25.1,00.0,0644.9,34.6
2016-11-30T00:03:00Z,0000388,61000608,,,,,,,,,,25.1,00.0,0644.9,34.6
2016-11-30T00:04:00Z,0000388,41000608,0001.34,0000.69,0000.84,0000.49,0000.32,0000.20,0000.16,0000.07,-000.09,25.1,00.0,0645.8,34.6
2016-11-30T00:05:00Z,0000388,01000608,0001.28,0000.53,0000.27,0000.02,0000.48,-000.12,-000.15,0000.06,0000.10,25.1,00.0,0646.0,34.6
2016-11-30T00:06:00Z,0000388,01000608,0001.28,0000.77,0000.09,0000.37,0000.54,-000.24,0000.19,0000.09,0000.36,25.0,00.0,0645.9,34.6
2016-11-30T00:07:00Z,0000388,01000608,0002.40,0001.22,0000.55,0000.54,0000.70,-000.12,0000.23,0000.05,-000.26,25.0,00.0,0645.9,34.6
2016-11-30T00:08:00Z,0000388,01000608,0001.62,0000.59,0000.29,0000.02,0000.61,-000.26,0000.11,0000.10,0000.32,25.0,00.0,0646.0,34.6
2016-11-30T00:09:00Z,0000388,01000608,0000.89,-000.44,0000.32,0000.43,0000.30,-000.13,0000.10,0000.19,-000.04,25.0,00.0,0645.9,34.6
2016-11-30T00:10:00Z,0000388,01000608,0000.63,0000.44,0000.12,0000.41,0000.02,-000.32,0000.13,-000.11,-000.05,25.0,00.0,0645.9,34.6
2016-11-30T00:11:00Z,0000388,01000608,0001.16,0000.48,0000.24,0000.85,0000.50,0000.34,0000.09,0000.09,0000.28,25.0,00.0,0645.9,34.6
2016-11-30T00:12:00Z,0000388,01000608,0000.99,0001.07,0000.17,0000.24,0000.38,-000.14,0000.13,0000.07,-000.26,24.9,00.0,0645.9,34.5
2016-11-30T00:13:00Z,0000388,01000608,0002.42,0000.82,0000.62,0000.74,0000.58,-000.05,0000.15,0000.29,0000.19,24.9,00.0,0646.0,34.5
2016-11-30T00:14:00Z,0000388,01000608,0000.95,0000.54,0000.25,0000.80,0000.25,-000.54,0000.17,0000.02,0000.02,24.9,00.0,0646.1,34.6
2016-11-30T00:15:00Z,0000388,01000608,0001.36,0000.49,0000.60,0000.08,0000.17,-000.15,0000.00,-000.01,-000.03,24.9,00.0,0646.1,34.6
2016-11-30T00:16:00Z,0000388,01000608,0000.78,0000.82,0000.40,-000.14,0000.33,0000.01,0000.16,0000.14,0000.40,25.0,00.0,0646.1,34.6
2016-11-30T00:17:00Z,0000388,01000608,0000.57,0000.19,0000.13,0000.71,0000.52,-000.26,0000.08,0000.09,0000.07,25.0,00.0,0646.1,34.6
2016-11-30T00:18:00Z,0000388,01000608,0001.48,0001.29,0000.32,0000.38,0000.55,-000.42,0000.05,0000.21,-000.02,25.0,00.0,0646.1,34.6
2016-11-30T00:19:00Z,0000388,01000608,0001.04,0000.31,0000.80,0000.66,0000.03,-000.06,0000.16,0000.09,-000.15,25.1,00.0,0646.1,34.6
2016-11-30T00:20:00Z,0000388,01000608,0000.92,0000.39,0000.53,0000.04,0000.18,0000.14,0000.04,0000.14,0000.14,25.1,00.0,0646.2,34.6
2016-11-30T00:21:00Z,0000388,01000608,0000.94,0000.98,0000.14,0000.26,0000.61,-000.08,0000.08,-000.02,0000.05,25.1,00.0,0646.2,34.6
2016-11-30T00:22:00Z,0000388,01000608,0001.27,0000.77,0000.85,0000.37,0000.53,-000.07,-000.00,0000.13,0000.35,25.1,00.0,0646.2,34.6
2016-11-30T00:23:00Z,0000388,01000608,0002.27,0000.64,0000.34,0000.83,-000.11,-000.02,0000.06,0000.00,-000.17,25.1,00.0,0646.2,34.6
2016-11-30T00:24:00Z,0000388,01000608,0000.76,0000.34,0000.83,0000.57,0000.37,0000.09,0000.25,0000.03,0000.04,25.1,00.0,0646.2,34.6
2016-11-30T00:25:00Z,0000388,01000608,0000.80,-000.17,0000.43,-000.12,0000.62,0000.21,-000.04,0000.12,0000.07,25.1,00.0,0646.3,34.6
2016-11-30T00:26:00Z,0000388,01000608,0001.09,0000.25,0000.82,0000.60,0000.33,0000.14,0000.10,0000.09,0000.17,25.0,00.0,0646.3,34.6
2016-11-30T00:27:00Z,0000388,01000608,0001.08,0000.75,0000.70,-000.10,0000.15,-000.25,0000.31,0000.23,-000.01,25.1,00.0,0646.3,34.6
2016-11-30T00:28:00Z,0000388,01000608,0001.04,0000.30,0000.50,0000.75,0000.16,0000.15,-000.17,0000.04,0000.08,25.1,00.0,0646.2,34.6
2016-11-30T00:29:00Z,0000388,01000608,0001.25,0000.26,0000.93,0000.13,0000.48,0000.39,0000.42,0000.08,0000.18,25.1,00.0,0646.1,34.6
2016-11-30T00:30:00Z,0000388,01000608,0000.55,0000.05,0000.32,0000.89,0000.19,-000.31,-000.06,0000.06,-000.01,25.1,00.0,0646.1,34.6
2016-11-30T00:31:00Z,0000388,01000608,0001.08,0000.37,0000.60,0000.40,0000.63,-000.01,-000.13,0000.07,-000.32,25.1,00.0,0646.1,34.6
2016-11-30T00:32:00Z,0000388,01000608,0001.25,0000.93,0000.17,0000.06,0000.06,-000.24,0000.30,0000.15,0000.73,25.2,00.0,0646.1,34.6
2016-11-30T00:33:00Z,0000388,01000608,0001.64,0000.37,0000.49,0000.34,0000.28,-000.20,0000.11,-000.01,-000.05,25.2,00.0,0646.1,34.6
2016-11-30T00:34:00Z,0000388,01000608,0000.78,0000.92,0000.65,0000.82,0000.28,0000.03,0000.08,0000.28,0000.12,25.2,00.0,0646.2,34.6
2016-11-30T00:35:00Z,0000388,01000608,0001.13,-000.28,0000.32,0000.29,-000.04,-000.18,-000.01,0000.04,-000.07,25.2,00.0,0646.2,34.7
2016-11-30T00:36:00Z,0000388,01000608,0001.43,0000.53,0000.16,-000.74,0000.20,-000.41,-000.00,0000.01,0000.04,25.2,00.0,0646.2,34.7
2016-11-30T00:37:00Z,0000388,01000608,0000.98,0000.56,0000.30,0000.55,-000.08,-000.05,0000.11,0000.11,0000.27,25.2,00.0,0646.2,34.7
2016-11-30T00:38:00Z,0000388,01000608,0001.42,0001.00,0000.57,0000.70,0000.34,0000.29,0000.24,0000.22,-000.04,25.3,00.0,0646.2,34.6
2016-11-30T00:39:00Z,0000388,01000608,0001.61,-000.08,0000.60,0000.85,0000.64,-000.05,-000.15,-000.24,-000.17,25.3,00.0,0646.2,34.6
2016-11-30T00:40:00Z,0000388,01000608,0001.31,0000.01,0000.30,0000.52,0000.32,0000.01,0000.17,0000.16,0000.23,25.3,00.0,0646.2,34.6
2016-11-30T00:41:00Z,0000388,01000608,0000.96,0000.78,0000.50,0000.54,0000.48,-000.30,0000.11,0000.24,0000.32,25.2,00.0,0646.2,34.6
2016-11-30T00:42:00Z,0000388,01000608,0001.21,0001.03,0000.42,0000.67,0000.40,0000.08,0000.21,0000.12,-000.11,25.2,00.0,0646.2,34.6
2016-11-30T00:43:00Z,0000388,01000608,0000.41,0000.53,0000.28,0000.58,0000.43,-000.08,0000.21,-000.05,-000.13,25.2,00.0,0646.2,34.6
2016-11-30T00:44:00Z,0000388,01000608,0001.72,0000.45,0000.11,0000.36,0000.42,-000.22,0000.08,0000.26,0000.30,25.2,00.0,0646.2,34.6
2016-11-30T00:45:00Z,0000388,01000608,0001.05,0000.60,0000.46,0000.60,0000.18,0000.10,-000.02,0000.17,-000.02,25.2,00.0,0646.3,34.6
2016-11-30T00:46:00Z,0000388,01000608,0001.12,0000.44,0000.55,0001.02,0000.35,0000.08,0000.21,-000.23,0000.19,25.2,00.0,0646.2,34.6
2016-11-30T00:47:00Z,0000388,01000608,0001.44,0000.20,0000.60,0000.43,0000.23,0000.01,0000.02,0000.26,0000.06,25.3,00.0,0646.3,34.6
2016-11-30T00:48:00Z,0000388,01000608,0001.07,0000.23,-000.06,0000.62,0000.20,-000.38,-000.02,0000.09,0000.10,25.3,00.0,0646.3,34.6
2016-11-30T00:49:00Z,0000388,01000608,0001.48,0000.85,0000.00,0001.24,0000.22,0000.33,0000.24,0000.07,-000.14,25.3,00.0,0646.3,34.6
2016-11-30T00:50:00Z,0000388,01000608,0001.65,0000.69,0000.42,0000.68,0000.35,0000.26,0000.01,0000.06,0000.06,25.3,00.0,0646.4,34.6
2016-11-30T00:51:00Z,0000388,01000608,0001.28,0000.19,0000.99,0000.45,0000.71,0000.03,0000.33,0000.07,0000.03,25.3,00.0,0646.4,34.6
2016-11-30T00:52:00Z,0000388,01000608,0001.26,0001.14,0000.12,0000.24,0000.40,-000.09,-000.24,0000.20,0000.31,25.3,00.0,0646.4,34.6
2016-11-30T00:53:00Z,0000388,01000608,0001.82,0000.83,0000.22,0000.07,0000.28,-000.18,0000.12,-000.13,0000.19,25.3,00.0,0646.3,34.6
2016-11-30T00:54:00Z,0000388,01000608,0000.71,0000.27,0000.27,0001.28,0000.28,0000.19,0000.16,0000.29,0000.14,25.3,00.0,0646.4,34.6
2016-11-30T00:55:00Z,0000388,01000608,0001.47,0000.48,0000.21,0000.49,0000.85,-000.45,-000.06,0000.06,-000.20,25.2,00.0,0646.4,34.6
2016-11-30T00:56:00Z,0000388,01000608,0001.10,-000.21,-000.04,0000.72,0000.07,-000.14,0000.25,0000.10,0000.10,25.2,00.0,0646.4,34.6
2016-11-30T00:57:00Z,0000388,41000608,,,,,,,,,,25.3,00.0,0646.3,34.6
2016-11-30T00:58:00Z,0000388,61000608,,,,,,,,,,25.3,00.0,0645.5,34.6
2016-11-30T00:59:00Z,0000388,21000608,,,,,,,,,,25.3,00.0,0645.4,34.6
2016-11-30T01:00:00Z,0000388,21000608,,,,,,,,,,25.3,00.0,0645.4,34.6
2016-11-30T01:01:00Z,0000388,21000608,,,,,,,,,,25.3,00.0,0645.3,34.6
2016-11-30T01:02:00Z,0000388,21000608,,,,,,,,,,25.3,00.0,0645.3,34.6
2016-11-30T01:03:00Z,0000388,61000608,,,,,,,,,,25.3,00.0,0645.3,34.6
2016-11-30T01:04:00Z,0000388,41000608,0001.41,0000.67,0000.25,-000.07,-000.11,-000.03,0000.06,0000.10,0000.10,25.3,00.0,0646.3,34.6
2016-11-30T01:05:00Z,0000388,01000608,0002.21,0000.43,0000.25,0000.71,0000.26,-000.50,0000.31,0000.43,0000.13,25.3,00.0,0646.5,34.6
2016-11-30T01:06:00Z,0000388,01000608,0003.97,0002.14,0001.43,0000.76,0000.51,0000.28,0005.68,0005.18,0004.39,25.3,00.0,0646.6,34.6
2016-11-30T01:07:00Z,0000388,01000608,0005.86,0004.84,0002.70,0001.27,0000.48,0000.40,0018.98,0017.33,0013.99,25.2,00.0,0646.6,34.6
2016-11-30T01:08:00Z,0000388,01000608,0003.21,0002.55,0001.26,0000.93,0000.31,0000.39,0010.83,0009.72,0008.27,25.2,00.0,0646.6,34.6
2016-11-30T01:09:00Z,0000388,01000608,0002.52,0001.68,0001.20,0001.20,0000.41,0000.24,0005.10,0004.91,0003.79,25.2,00.0,0646.7,34.6
2016-11-30T01:10:00Z,0000388,01000608,0003.44,0002.44,0001.35,0001.28,0000.30,0000.02,0008.63,0007.56,0006.36,25.1,00.0,0646.7,34.5
2016-11-30T01:11:00Z,0000388,01000608,0006.31,0004.82,0002.58,0001.29,0000.53,0000.50,0018.24,0016.43,0013.59,25.1,00.0,0646.7,34.5
2016-11-30T01:12:00Z,0000388,01000608,0007.73,0005.10,0003.33,0001.19,0001.14,0000.48,0022.26,0020.11,0016.23,25.1,00.0,0646.7,34.5
2016-11-30T01:13:00Z,0000388,01000608,0007.43,0004.49,0002.69,0000.99,0000.58,0000.57,0020.35,0018.44,0015.00,25.1,00.0,0646.7,34.5
2016-11-30T01:14:00Z,0000388,01000608,0007.51,0005.09,0003.60,0002.01,0000.91,0000.63,0023.71,0021.60,0017.85,25.1,00.0,0646.7,34.6
2016-11-30T01:15:00Z,0000388,01000608,0007.11,0004.93,0003.19,0000.89,0000.45,0000.62,0021.89,0020.00,0016.41,25.1,00.0,0646.7,34.6
2016-11-30T01:16:00Z,0000388,01000608,0006.68,0004.24,0002.63,0001.05,0000.68,0000.39,0018.31,0016.40,0013.40,25.1,00.0,0646.7,34.6
2016-11-30T01:17:00Z,0000388,01000608,0002.65,0001.64,0001.18,0000.54,-000.05,0000.09,0006.42,0005.71,0004.91,25.1,00.0,0646.7,34.6
2016-11-30T01:18:00Z,0000388,01000608,0001.80,0001.22,0000.71,0001.10,0000.27,-000.14,0002.00,0001.99,0001.25,25.1,00.0,0646.7,34.6
2016-11-30T01:19:00Z,0000388,01000608,0002.53,0001.75,0000.72,0000.18,0000.27,0000.16,0003.04,0002.80,0002.65,25.1,00.0,0646.7,34.6
2016-11-30T01:20:00Z,0000388,01000608,0000.87,0001.09,0000.77,0000.39,0000.10,0000.20,0002.77,0002.63,0001.86,25.2,00.0,0646.7,34.6
2016-11-30T01:21:00Z,0000388,01000608,0001.93,0001.48,0000.80,0000.33,0000.04,0000.19,0003.07,0002.71,0002.45,25.2,00.0,0646.7,34.6
2016-11-30T01:22:00Z,0000388,01000608,0002.81,0001.72,0001.28,0000.55,0000.31,-000.01,0004.99,0004.65,0003.62,25.2,00.0,0646.7,34.6
2016-11-30T01:23:00Z,0000388,01000608,0001.04,0001.76,0000.84,0000.87,0000.28,0000.19,0004.09,0003.75,0003.40,25.2,00.0,0646.7,34.6
2016-11-30T01:24:00Z,0000388,01000608,0001.24,0001.08,0000.43,0000.68,0000.35,-000.14,0001.38,0001.24,0000.59,25.2,00.0,0646.6,34.6
2016-11-30T01:25:00Z,0000388,01000608,0001.13,0000.49,0000.88,0000.56,0000.47,0000.01,0000.44,0000.25,0000.45,25.2,00.0,0646.7,34.6
2016-11-30T01:26:00Z,0000388,01000608,0001.59,0001.28,0000.40,0001.04,0000.12,-000.42,0000.48,0000.31,0000.20,25.1,00.0,0646.7,34.5
2016-11-30T01:27:00Z,0000388,01000608,0000.90,0000.54,0000.99,0000.00,0000.14,0000.33,0000.30,0000.27,0000.31,25.1,00.0,0646.7,34.5
2016-11-30T01:28:00Z,0000388,01000608,0000.69,0000.58,0000.03,0000.43,0000.08,0000.07,-000.11,0000.03,-000.01,25.1,00.0,0646.7,34.5
2016-11-30T01:29:00Z,0000388,01000608,0001.12,0000.18,0000.46,0000.52,-000.33,0000.39,0000.44,0000.18,0000.16,25.1,00.0,0646.7,34.5
2016-11-30T01:30:00Z,0000388,01000608,0001.74,0001.36,0000.94,0000.32,0000.19,0000.34,0002.86,0002.83,0002.15,25.1,00.0,0646.8,34.6
2016-11-30T01:31:00Z,0000388,01000608,0002.24,0001.80,0001.57,-000.09,0000.27,0000.05,0005.88,0005.28,0004.04,25.1,00.0,0646.7,34.6
2016-11-30T01:32:00Z,0000388,01000608,0001.59,0001.61,0000.89,0000.35,0000.09,0000.04,0001.41,0001.13,0001.16,25.1,00.0,0646.6,34.6
2016-11-30T01:33:00Z,0000388,01000608,0001.95,0001.00,0000.99,0000.73,0000.37,0000.25,0000.88,0000.97,0000.84,25.2,00.0,0646.7,34.6
2016-11-30T01:34:00Z,0000388,01000608,0001.13,0001.18,0000.27,0000.19,0000.09,-000.16,0000.97,0000.93,0000.73,25.2,00.0,0646.6,34.6
2016-11-30T01:35:00Z,0000388,01000608,0001.45,0000.44,0000.09,-000.30,-000.25,-000.01,0000.42,0000.23,0000.16,25.2,00.0,0646.6,34.6
2016-11-30T01:36:00Z,0000388,01000608,0001.03,0000.36,0000.34,0000.71,-000.24,-000.20,0000.33,0000.33,0000.43,25.2,00.0,0646.5,34.6
2016-11-30T01:37:00Z,0000388,01000608,0002.47,0001.46,0000.33,0000.51,0000.34,-000.04,0000.13,0000.25,0000.07,25.2,00.0,0646.4,34.6
2016-11-30T01:38:00Z,0000388,01000608,0001.59,0000.80,0000.48,0000.02,0000.35,0000.31,0000.06,0000.14,0000.31,25.3,00.0,0646.5,34.6
2016-11-30T01:39:00Z,0000388,01000608,0000.52,0000.30,0000.35,0000.39,-000.05,-000.05,0000.45,0000.60,0000.00,25.2,00.0,0646.5,34.6
2016-11-30T01:40:00Z,0000388,01000608,0001.55,0001.28,0000.19,0000.36,0000.36,0000.05,0000.80,0000.61,0000.85,25.2,00.0,0646.4,34.6
2016-11-30T01:41:00Z,0000388,01000608,0001.44,0000.73,0000.64,0000.26,-000.01,0000.12,0001.02,0000.66,0000.68,25.2,00.0,0646.6,34.5
2016-11-30T01:42:00Z,0000388,01000608,0000.94,0000.51,0000.75,0000.53,0000.30,-000.05,0000.41,0000.32,0000.11,25.2,00.0,0646.6,34.5
2016-11-30T01:43:00Z,0000388,01000608,0001.84,0000.62,0000.30,0000.11,0000.74,-000.03,-000.03,0000.25,0000.26,25.2,00.0,0646.7,34.5
2016-11-30T01:44:00Z,0000388,01000608,0001.29,0000.69,0000.51,0000.61,0000.22,0000.14,0000.39,0000.08,-000.03,25.2,00.0,0646.7,34.6
2016-11-30T01:45:00Z,0000388,01000608,0000.93,0000.50,0000.27,0000.53,0000.13,-000.09,0000.25,0000.03,-000.02,25.2,00.0,0646.7,34.6
2016-11-30T01:46:00Z,0000388,01000608,0001.62,0001.23,0000.53,0000.82,0000.14,0000.16,-000.09,0000.08,0000.36,25.2,00.0,0646.7,34.6
2016-11-30T01:47:00Z,0000388,01000608,0001.47,0000.33,0000.45,-000.47,0000.06,-000.37,0000.26,0000.29,0000.01,25.2,00.0,0646.8,34.6
2016-11-30T01:48:00Z,0000388,01000608,0001.39,0001.28,0000.36,-000.24,0000.27,-000.06,0000.00,0000.10,0000.37,25.2,00.0,0646.8,34.6
2016-11-30T01:49:00Z,0000388,01000608,0000.88,0001.03,0000.59,0000.40,0000.16,0000.12,0000.17,0000.11,-000.07,25.2,00.0,0646.8,34.6
2016-11-30T01:50:00Z,0000388,01000608,0001.51,0000.58,0000.78,-000.05,0000.55,0000.02,0000.06,0000.17,-000.01,25.3,00.0,0646.8,34.6
2016-11-30T01:51:00Z,0000388,01000608,0001.59,0000.67,0000.37,0000.54,0000.17,0000.10,0000.04,0000.16,0000.33,25.3,00.0,0646.8,34.6
2016-11-30T01:52:00Z,0000388,01000608,0001.35,0000.51,0000.52,0000.26,0000.03,-000.10,0000.38,0000.17,-000.19,25.3,00.0,0646.8,34.6
2016-11-30T01:53:00Z,0000388,01000608,0000.65,0000.58,0000.86,0000.85,0000.24,0000.18,0000.21,0000.18,0000.19,25.2,00.0,0646.9,34.6
2016-11-30T01:54:00Z,0000388,01000608,0002.07,0000.67,0000.33,-000.46,0000.40,0000.09,-000.11,0000.28,0000.06,25.3,00.0,0646.9,34.6
2016-11-30T01:55:00Z,0000388,01000608,0000.63,0000.61,0000.38,0000.26,0000.29,0000.08,0000.27,0000.10,0000.37,25.2,00.0,0646.9,34.6
2016-11-30T01:56:00Z,0000388,01000608,0001.38,0001.15,0000.62,0000.49,0000.50,0000.06,0000.12,0000.05,0000.11,25.2,00.0,0646.9,34.5
2016-11-30T01:57:00Z,0000388,41000608,,,,,,,,,,25.2,00.0,0646.9,34.5
2016-11-30T01:58:00Z,0000388,61000608,,,,,,,,,,25.2,00.0,0645.9,34.5
2016-11-30T01:59:00Z,0000388,21000608,,,,,,,,,,25.2,00.0,0645.9,34.6
2016-11-30T02:00:00Z,0000388,21000608,,,,,,,,,,25.2,00.0,0645.8,34.6
2016-11-30T02:01:00Z,0000388,21000608,,,,,,,,,,25.2,00.0,0645.8,34.6
2016-11-30T02:02:00Z,0000388,21000608,,,,,,,,,,25.2,00.0,0645.8,34.6
2016-11-30T02:03:00Z,0000388,61000608,,,,,,,,,,25.2,00.0,0645.8,34.6
2016-11-30T02:04:00Z,0000388,41000608,0001.05,0000.95,0000.78,0000.60,0000.39,0000.10,0001.53,0001.22,0001.32,25.2,00.0,0646.6,34.6
2016-11-30T02:05:00Z,0000388,01000608,0001.43,0000.83,0001.19,-000.09,0000.47,0000.20,0002.27,0002.02,0001.68,25.3,00.0,0646.8,34.6
2016-11-30T02:06:00Z,0000388,01000608,0002.13,0002.27,0001.22,0000.45,0000.50,-000.03,0004.97,0004.42,0003.22,25.3,00.0,0646.9,34.6
2016-11-30T02:07:00Z,0000388,01000608,0002.50,0001.26,0000.83,0000.17,0000.71,0000.08,0004.29,0004.16,0003.78,25.3,00.0,0647.0,34.6
2016-11-30T02:08:00Z,0000388,01000608,0002.03,0001.96,0000.96,0000.88,0000.63,0000.28,0005.78,0005.42,0004.38,25.3,00.0,0646.9,34.6
2016-11-30T02:09:00Z,0000388,01000608,0002.22,0001.96,0001.28,0000.56,0000.43,-000.09,0004.77,0004.22,0003.54,25.3,00.0,0646.9,34.6
2016-11-30T02:10:00Z,0000388,01000608,0002.61,0002.29,0000.92,-000.58,0000.84,0000.01,0003.86,0003.44,0002.76,25.3,00.0,0646.9,34.6
2016-11-30T02:11:00Z,0000388,01000608,0002.51,0001.32,0001.36,0001.31,0000.34,0000.38,0005.19,0004.45,0003.69,25.3,00.0,0646.9,34.6
2016-11-30T02:12:00Z,0000388,01000608,0002.71,0001.79,0001.64,0000.00,0000.11,0000.56,0006.44,0005.95,0004.86,25.2,00.0,0646.9,34.5
2016-11-30T02:13:00Z,0000388,01000608,0003.17,0001.75,0001.09,0000.78,0000.21,-000.13,0006.35,0005.56,0004.68,25.2,00.0,0646.9,34.5
2016-11-30T02:14:00Z,0000388,01000608,0003.46,0002.36,0001.78,0000.27,0000.89,0000.52,0009.53,0008.64,0006.99,25.2,00.0,0646.9,34.6
2016-11-30T02:15:00Z,0000388,01000608,0003.18,0001.32,0001.74,0000.60,0000.55,0000.20,0008.77,0007.93,0006.48,25.2,00.0,0646.8,34.6
2016-11-30T02:16:00Z,0000388,01000608,0002.16,0001.43,0001.17,0000.34,0000.75,0000.11,0005.20,0004.97,0004.07,25.3,00.0,0646.8,34.6
2016-11-30T02:17:00Z,0000388,01000608,0001.69,0001.06,0000.47,-000.10,0000.37,-000.03,0000.55,0000.56,0000.40,25.3,00.0,0646.7,34.6
2016-11-30T02:18:00Z,0000388,01000608,0001.89,0001.06,0000.79,-000.03,0000.58,0000.51,0000.76,0000.49,0000.62,25.3,00.0,0646.9,34.6
2016-11-30T02:19:00Z,0000388,01000608,0001.61,0000.49,0000.36,0000.37,0000.25,-000.03,0000.19,0000.27,0000.07,25.3,00.0,0647.0,34.6
2016-11-30T02:20:00Z,0000388,01000608,0000.25,0000.01,0000.65,-000.50,0000.21,0000.03,0000.19,0000.55,0000.33,25.3,00.0,0647.1,34.6
2016-11-30T02:21:00Z,0000388,01000608,0001.54,0000.60,0000.58,-000.17,0000.52,0000.02,0000.26,0000.28,0000.41,25.3,00.0,0647.1,34.6
2016-11-30T02:22:00Z,0000388,01000608,0001.29,0000.01,0000.28,0000.10,0000.04,-000.15,0000.24,0000.05,0000.07,25.3,00.0,0647.1,34.6
2016-11-30T02:23:00Z,0000388,01000608,0001.16,0000.08,0000.58,-000.25,-000.07,0000.10,0000.30,0000.26,0000.31,25.3,00.0,0647.1,34.6
2016-11-30T02:24:00Z,0000388,01000608,0000.44,0000.21,0000.51,0000.40,0000.38,-000.22,0000.29,0000.46,0000.11,25.3,00.0,0647.1,34.6
2016-11-30T02:25:00Z,0000388,01000608,0001.06,0000.50,0000.67,0000.10,0000.12,-000.13,0000.20,0000.25,0000.14,25.2,00.0,0647.1,34.5
2016-11-30T02:26:00Z,0000388,01000608,0000.22,0000.65,0000.85,-000.08,-000.06,0000.27,0000.92,0000.48,0000.43,25.2,00.0,0647.1,34.5
2016-11-30T02:27:00Z,0000388,01000608,0001.35,0000.45,0000.98,0000.57,0000.20,0000.03,0001.79,0001.71,0001.26,25.2,00.0,0647.1,34.5
2016-11-30T02:28:00Z,0000388,01000608,0000.85,0000.42,0000.44,0000.87,0000.57,-000.18,0001.52,0001.26,0001.27,25.2,00.0,0647.1,34.5
2016-11-30T02:29:00Z,0000388,01000608,0001.44,0000.44,0000.30,-000.20,0000.23,-000.32,0000.79,0000.58,0000.60,25.2,00.0,0647.1,34.6
2016-11-30T02:30:00Z,0000388,01000608,0001.32,0000.04,0000.37,-000.31,0000.75,-000.12,0000.39,0000.55,0000.27,25.2,00.0,0647.1,34.6
2016-11-30T02:31:00Z,0000388,01000608,0000.68,0000.45,0001.32,0000.84,0000.38,-000.08,0000.55,0000.39,0000.54,25.2,00.0,0647.1,34.6
2016-11-30T02:32:00Z,0000388,01000608,0001.23,0000.31,0000.34,-000.61,0000.14,-000.33,0000.27,0000.43,-000.01,25.2,00.0,0647.1,34.6
2016-11-30T02:33:00Z,0000388,01000608,0001.38,0000.23,0000.90,0000.24,-000.00,0000.13,0000.62,0000.20,0000.34,25.2,00.0,0647.1,34.6
2016-11-30T02:34:00Z,0000388,01000608,0000.19,0000.80,0000.88,-000.04,0000.98,0000.27,0000.12,0000.47,0000.30,25.3,00.0,0647.1,34.6
2016-11-30T02:35:00Z,0000388,01000608,0000.76,0000.95,0000.44,-000.23,0000.47,-000.18,0000.59,0000.34,0000.36,25.3,00.0,0647.1,34.6
2016-11-30T02:36:00Z,0000388,01000608,0001.23,0000.41,0000.87,-000.21,0000.41,-000.13,0000.14,0000.40,0000.07,25.3,00.0,0647.2,34.6
2016-11-30T02:37:00Z,0000388,01000608,0000.24,0000.49,0000.44,-000.63,0000.17,-000.08,-000.03,0000.05,0000.42,25.3,00.0,0647.1,34.6
2016-11-30T02:38:00Z,0000388,01000608,0000.96,0000.45,0001.01,0000.89,0000.63,-000.14,0000.26,0000.06,-000.30,25.3,00.0,0647.2,34.6
2016-11-30T02:39:00Z,0000388,01000608,0000.54,0000.42,0000.58,-000.03,-000.01,0000.32,0000.21,0000.10,0000.30,25.3,00.0,0647.2,34.6
2016-11-30T02:40:00Z,0000388,01000608,0000.70,0000.50,0000.76,-000.29,0000.10,-000.08,-000.13,0000.20,0000.15,25.2,00.0,0647.2,34.6
2016-11-30T02:41:00Z,0000388,01000608,0000.50,0001.42,0000.28,0000.86,0000.48,0000.04,0000.40,0000.04,-000.06,25.2,00.0,0647.2,34.5
2016-11-30T02:42:00Z,0000388,01000608,0001.22,-000.02,0000.63,0000.13,0000.58,0000.03,0000.20,0000.06,0000.23,25.2,00.0,0647.2,34.5
2016-11-30T02:43:00Z,0000388,01000608,0000.62,0000.76,0000.89,-000.19,0000.45,0000.04,-000.07,0000.11,-000.36,25.2,00.0,0647.1,34.5
2016-11-30T02:44:00Z,0000388,01000608,0001.94,0000.24,0000.54,0000.06,0000.15,-000.35,0000.32,0000.15,0000.28,25.2,00.0,0647.1,34.6
2016-11-30T02:45:00Z,0000388,01000608,0000.16,0000.71,0000.82,0000.00,0000.51,-000.35,-000.02,0000.13,0000.31,25.2,00.0,0647.1,34.6
2016-11-30T02:46:00Z,0000388,01000608,0000.58,0000.90,0000.64,-000.12,0000.37,0000.14,0000.22,0000.14,-000.12,25.2,00.0,0647.1,34.6
2016-11-30T02:47:00Z,0000388,01000608,0001.43,0000.28,0000.30,0000.24,0000.78,0000.25,0000.05,0000.09,0000.35,25.3,00.0,0647.0,34.6
2016-11-30T02:48:00Z,0000388,01000608,0001.01,0000.67,0000.22,-000.43,0000.56,-000.44,0000.21,0000.15,0000.18,25.3,00.0,0647.0,34.6
2016-11-30T02:49:00Z,0000388,01000608,0001.04,0000.33,0000.65,-000.01,0000.31,0000.13,0000.28,0000.39,0000.11,25.3,00.0,0646.9,34.6
2016-11-30T02:50:00Z,0000388,01000608,0001.37,0000.42,0000.48,0000.02,0000.63,0000.04,0000.42,0000.07,0000.19,25.3,00.0,0646.9,34.6
2016-11-30T02:51:00Z,0000388,01000608,0001.72,0000.46,0000.21,-000.28,0000.07,0000.02,0000.17,0000.40,0000.31,25.3,00.0,0647.0,34.6
2016-11-30T02:52:00Z,0000388,01000608,0000.21,0000.36,0000.42,-000.23,0000.43,-000.38,-000.05,0000.20,0000.02,25.3,00.0,0647.0,34.6
2016-11-30T02:53:00Z,0000388,01000608,0000.78,-000.11,0000.17,-000.19,0000.36,0000.13,0000.13,0000.14,-000.21,25.3,00.0,0647.1,34.6
2016-11-30T02:54:00Z,0000388,01000608,0001.13,0000.50,0000.40,0000.15,0000.41,0000.04,0000.15,0000.05,0000.38,25.2,00.0,0647.1,34.6
2016-11-30T02:55:00Z,0000388,01000608,0000.59,0000.41,0000.54,-000.28,-000.01,0000.29,0000.02,-000.04,0000.06,25.2,00.0,0647.1,34.5
2016-11-30T02:56:00Z,0000388,01000608,0000.05,0000.92,0001.05,0000.02,0000.18,0000.03,0000.32,0000.20,-000.23,25.2,00.0,0647.1,34.5
2016-11-30T02:57:00Z,0000388,41000608,,,,,,,,,,25.2,00.0,0647.1,34.5
2016-11-30T02:58:00Z,0000388,61000608,,,,,,,,,,25.2,00.0,0646.1,34.5
2016-11-30T02:59:00Z,0000388,21000608,,,,,,,,,,25.2,00.0,0646.0,34.5
2016-11-30T03:00:00Z,0000388,21000608,,,,,,,,,,25.2,00.0,0646.0,34.6
2016-11-30T03:01:00Z,0000388,21000608,,,,,,,,,,25.2,00.0,0646.0,34.6
2016-11-30T03:02:00Z,0000388,21000608,,,,,,,,,,25.2,00.0,0646.0,34.6
2016-11-30T03:03:00Z,0000388,61000608,,,,,,,,,,25.2,00.0,0646.0,34.6
2016-11-30T03:04:00Z,0000388,41000608,0001.23,0001.21,-000.12,-000.25,0000.53,0000.01,0000.09,0000.08,-000.01,25.2,00.0,0646.9,34.6
2016-11-30T03:05:00Z,0000388,01000608,0001.28,0000.82,0000.83,0000.50,0000.08,0000.07,0000.02,0000.03,0000.08,25.3,00.0,0647.0,34.6
2016-11-30T03:06:00Z,0000388,01000608,0000.61,0000.97,-000.05,0000.53,0000.13,0000.10,0000.00,0000.30,0000.45,25.3,00.0,0647.0,34.6
2016-11-30T03:07:00Z,0000388,01000608,0002.14,0000.47,0000.01,-000.19,0000.02,0000.10,0000.09,0000.15,0000.18,25.3,00.0,0647.0,34.6
2016-11-30T03:08:00Z,0000388,01000608,0001.41,0000.44,0000.20,0000.31,0000.18,0000.30,0000.12,0000.15,-000.02,25.3,00.0,0647.0,34.5
2016-11-30T03:09:00Z,0000388,01000608,0001.35,0000.75,-000.03,0000.14,0000.46,0000.28,0000.17,0000.11,-000.18,25.2,00.0,0646.9,34.5
2016-11-30T03:10:00Z,0000388,01000608,0001.69,0000.98,-000.04,0000.54,0000.23,0000.00,0000.17,0000.04,0000.41,25.2,00.0,0646.9,34.5
2016-11-30T03:11:00Z,0000388,01000608,0001.88,0001.03,0000.19,0000.34,0000.28,-000.24,0000.16,-000.06,0000.01,25.1,00.0,0646.9,34.5